Volver al catálogo

STARLINK-37564

ActivoComunicacionesSSO
NORAD 68902·PAYLOAD·🇺🇸 United States

Lanzado Apr 30, 2026 desde Vandenberg Space Force Base

Loading…

Próximos Pases (próximas 24 horas)

TLE

ActualizadoSource: CelesTrak SupGP

Época: Sep 15, 2026, 03:41 UTC

1 68902C 26097H   26258.15395833 -.00048505  00000+0 -15042-2 0  2584
2 68902  97.2855  92.3948 0001673  79.0975 297.1252 15.33495969    15

Sigue STARLINK-37564 en tiempo real con AllMySat

Download on the App Store